Change the Weather History Date:

Thursday, October 25, 2012

  Actual Average Record
Temperature  
Mean Temperature 63 °F -  
Max Temperature 82 °F 71 °F 82 °F (2010)
Min Temperature 44 °F 42 °F 30 °F (2007)
Degree Days  
Heating Degree Days 2    
Growing Degree Days 13 (Base 50)    
Moisture  
Dew Point 36 °F    
Average Humidity 37    
Maximum Humidity 62    
Minimum Humidity 20    
Precipitation  
Precipitation 0.00 in - - ()
Sea Level Pressure  
Sea Level Pressure 30.18 in    
Wind  
Wind Speed 5 mph ()    
Max Wind Speed 8 mph    
Max Gust Speed -    
Visibility 10.0 miles    
Events      
Averages and records for this station are not official NWS values.
T = Trace of Precipitation, MM = Missing Value Source: Averaged Metar Reports

Daily Weather History Graph

Daily Weather History Graph

Search for Another Location

Airport or City:

Trip Planner

Search our weather history database for the weather conditions in past years. The results will help you decide how hot, cold, wet, or windy it might be!

Date:

Astronomy

Oct. 25, 2012 Rise Set
Actual Time 7:52 AM CDT 7:16 PM CDT
Civil Twilight 7:29 AM CDT 7:39 PM CDT
Nautical Twilight 7:02 AM CDT 8:06 PM CDT
Astronomical Twilight 6:36 AM CDT 8:32 PM CDT
Moon 4:43 PM CDT (10/25) 4:15 AM CDT (10/25)
Length of Visible Light 12h 10m
Length of Day
11h 24m
Waxing Gibbous, 84% of the Moon is Illuminated
Oct 25
Waxing Gibbous
Oct 29
Full
Nov 6
Last Quarter
Nov 13
New
Nov 20
First Quarter

Hourly Weather History & Observations

Time (CDT) Temp. Windchill Dew Point Humidity Pressure Visibility Wind Dir Wind Speed Gust Speed Precip Events Conditions
12:43 AM 57.2 °F - 33.8 °F 41% 30.18 in 10.0 mi NE 5.8 mph - N/A   Clear
1:43 AM 55.4 °F - 33.8 °F 44% 30.18 in 10.0 mi SSW 4.6 mph - N/A   Clear
3:43 AM 50.0 °F - 33.8 °F 54% 30.17 in 10.0 mi South 4.6 mph - N/A   Clear
4:42 AM 50.0 °F - 33.8 °F 54% 30.17 in 10.0 mi SSW 4.6 mph - N/A   Clear
5:43 AM 44.6 °F 41.4 °F 32.0 °F 61% 30.18 in 10.0 mi South 5.8 mph - N/A   Clear
6:43 AM 48.2 °F - 33.8 °F 58% 30.19 in 10.0 mi South 4.6 mph - N/A   Clear
7:46 AM 48.2 °F - 35.6 °F 62% 30.21 in 10.0 mi South 8.1 mph - N/A   Clear
8:40 AM 53.6 °F - 35.6 °F 51% 30.22 in 10.0 mi South 5.8 mph - N/A   Clear
9:40 AM 62.6 °F - 39.2 °F 42% 30.23 in 10.0 mi SSW 5.8 mph - N/A   Clear
10:40 AM 71.6 °F - 42.8 °F 35% 30.24 in 10.0 mi South 5.8 mph - N/A   Clear
11:40 AM 73.4 °F - 44.6 °F 36% 30.23 in 10.0 mi SSE 6.9 mph - N/A   Clear
12:40 PM 77.0 °F - 39.2 °F 26% 30.21 in 10.0 mi NE 5.8 mph - N/A   Clear
1:40 PM 80.6 °F - 39.2 °F 23% 30.18 in 10.0 mi North 6.9 mph - N/A   Clear
2:40 PM 80.6 °F - 37.4 °F 21% 30.15 in 10.0 mi North 8.1 mph - N/A   Clear
3:40 PM 82.4 °F - 37.4 °F 20% 30.14 in 10.0 mi NNW 4.6 mph - N/A   Clear
4:41 PM 80.6 °F - 35.6 °F 20% 30.13 in 10.0 mi Calm Calm - N/A   Partly Cloudy
5:52 PM 80.6 °F - 35.6 °F 20% 30.12 in 10.0 mi ENE 5.8 mph - N/A   Partly Cloudy
6:46 PM 77.0 °F - 33.8 °F 21% 30.12 in 10.0 mi ENE 4.6 mph - N/A   Partly Cloudy
7:44 PM 73.4 °F - 35.6 °F 25% 30.14 in 10.0 mi East 6.9 mph - N/A   Scattered Clouds
9:51 PM 66.2 °F - 33.8 °F 30% 30.16 in 10.0 mi ENE 5.8 mph - N/A   Scattered Clouds
11:58 PM 64.4 °F - 35.6 °F 34% 30.18 in 10.0 mi Calm Calm - N/A   Clear